Station Historical Data
Daily Summary for November 2, 2017 Units:  Metric    English   Both
« Previous Day
Next Day »
Daily Weekly Monthly Yearly Custom
  High: Low: Average:
Temperature: 22.6 °C 12.6 °C 16.8 °C
Dew Point: 16 °C 11.2 °C 13.5 °C
Humidity: 92% 58% 82%
Wind Speed: 3.7km/h 0km/h 0.2km/h
Wind Gust: 3.7km/h - -
Wind- - West
Pressure: 1024.9 hPa 1021.9 hPa -
Precipitation: 0 mm    
Historical Graphs
 
 
Tabular Data for November 2, 2017
Time Temperature Dew Point Pressure Wind Wind Speed Wind Gust Humidity Rainfall Rate (Hourly) Conditions
00:02 13.4 °C 11.8 °C 1022.2 hPa Calm     90% 0 mm CLR
00:07 13.3 °C 11.7 °C 1022.2 hPa Calm     90% 0 mm CLR
00:12 13.2 °C 11.6 °C 1022.2 hPa Calm     90% 0 mm CLR
00:17 13.1 °C 11.4 °C 1022.2 hPa Calm     90% 0 mm CLR
00:23 12.9 °C 11.3 °C 1022.2 hPa Calm     90% 0 mm CLR
00:28 12.9 °C 11.5 °C 1022.2 hPa Calm     91% 0 mm CLR
00:31 12.9 °C 11.5 °C 1022.2 hPa Calm     91% 0 mm CLR
00:36 12.9 °C 11.5 °C 1022.6 hPa Calm     91% 0 mm CLR
00:41 12.9 °C 11.5 °C 1022.2 hPa Calm     91% 0 mm CLR
00:46 12.9 °C 11.4 °C 1022.2 hPa Calm     91% 0 mm CLR
00:51 12.9 °C 11.4 °C 1022.2 hPa Calm     91% 0 mm CLR
00:56 12.9 °C 11.5 °C 1022.6 hPa Calm     91% 0 mm CLR
01:01 12.9 °C 11.7 °C 1022.2 hPa Calm     92% 0 mm BKN
01:06 12.9 °C 11.7 °C 1022.2 hPa Calm     92% 0 mm BKN
01:11 12.9 °C 11.6 °C 1022.2 hPa Calm     92% 0 mm BKN
01:16 12.8 °C 11.6 °C 1022.2 hPa Calm     92% 0 mm BKN
01:20 12.8 °C 11.6 °C 1022.2 hPa Calm     92% 0 mm BKN
01:25 12.9 °C 11.6 °C 1022.2 hPa Calm     92% 0 mm BKN
01:30 12.9 °C 11.7 °C 1022.2 hPa Calm     92% 0 mm BKN
01:35 13.1 °C 11.8 °C 1022.2 hPa Calm     92% 0 mm BKN
01:41 13.1 °C 11.8 °C 1022.2 hPa Calm     92% 0 mm BKN
01:46 13.1 °C 11.8 °C 1022.2 hPa Calm     92% 0 mm BKN
01:51 13.2 °C 11.9 °C 1022.2 hPa Calm     92% 0 mm BKN
01:56 13.2 °C 11.9 °C 1022.2 hPa Calm     92% 0 mm BKN
02:01 13.2 °C 11.8 °C 1022.2 hPa Calm     91% 0 mm SCT
02:06 13.2 °C 11.8 °C 1022.2 hPa Calm     91% 0 mm SCT
02:11 13.3 °C 11.8 °C 1022.2 hPa Calm     91% 0 mm SCT
02:16 13.3 °C 11.8 °C 1022.2 hPa Calm     91% 0 mm SCT
02:21 13.3 °C 11.8 °C 1022.2 hPa Calm     91% 0 mm SCT
02:26 13.3 °C 11.8 °C 1022.2 hPa Calm     91% 0 mm SCT
02:31 13.3 °C 11.8 °C 1022.2 hPa Calm     91% 0 mm SCT
02:36 13.2 °C 11.8 °C 1022.2 hPa Calm     91% 0 mm SCT
02:41 13.2 °C 11.7 °C 1022.2 hPa Calm     91% 0 mm SCT
02:46 13.2 °C 11.8 °C 1022.2 hPa Calm     91% 0 mm SCT
02:51 13.3 °C 11.8 °C 1022.2 hPa Calm     91% 0 mm SCT
02:56 13.3 °C 12 °C 1022.2 hPa Calm     92% 0 mm SCT
03:01 13.3 °C 11.8 °C 1022.2 hPa Calm     91% 0 mm BKN
03:06 13.3 °C 11.8 °C 1022.2 hPa Calm     91% 0 mm BKN
03:11 13.2 °C 11.8 °C 1022.2 hPa Calm     91% 0 mm BKN
03:16 13.2 °C 11.8 °C 1022.2 hPa Calm     91% 0 mm BKN
03:21 13.3 °C 11.8 °C 1022.2 hPa Calm     91% 0 mm BKN
03:27 13.3 °C 11.9 °C 1022.2 hPa Calm     91% 0 mm BKN
03:32 13.3 °C 11.9 °C 1022.2 hPa Calm     91% 0 mm BKN
03:37 13.3 °C 11.9 °C 1022.2 hPa Calm     91% 0 mm BKN
03:42 13.3 °C 11.8 °C 1022.2 hPa Calm     91% 0 mm BKN
03:47 13.3 °C 11.8 °C 1022.2 hPa Calm     91% 0 mm BKN
03:52 13.3 °C 11.8 °C 1022.2 hPa Calm     91% 0 mm BKN
03:57 13.3 °C 11.8 °C 1022.2 hPa Calm     91% 0 mm BKN
04:02 13.3 °C 11.8 °C 1022.2 hPa Calm     91% 0 mm BKN
04:07 13.3 °C 11.8 °C 1022.2 hPa Calm     91% 0 mm BKN
04:12 13.3 °C 11.8 °C 1022.2 hPa Calm     91% 0 mm BKN
04:17 13.3 °C 12 °C 1022.2 hPa Calm     92% 0 mm BKN
04:22 13.3 °C 11.8 °C 1022.2 hPa Calm     91% 0 mm BKN
04:27 13.2 °C 11.8 °C 1022.2 hPa Calm     91% 0 mm BKN
04:32 13.3 °C 12 °C 1022.2 hPa Calm     92% 0 mm BKN
04:37 13.3 °C 12 °C 1022.2 hPa Calm     92% 0 mm BKN
04:42 13.3 °C 12 °C 1021.9 hPa Calm     92% 0 mm BKN
04:47 13.3 °C 12 °C 1022.2 hPa Calm     92% 0 mm BKN
04:52 13.2 °C 11.9 °C 1022.2 hPa Calm     92% 0 mm BKN
04:57 13.2 °C 11.9 °C 1022.2 hPa Calm     92% 0 mm BKN
05:02 13.3 °C 12 °C 1022.6 hPa Calm     92% 0 mm SCT
05:07 13.3 °C 12 °C 1022.6 hPa Calm     92% 0 mm SCT
05:12 13.3 °C 11.8 °C 1022.6 hPa Calm     91% 0 mm SCT
05:17 13.3 °C 11.8 °C 1022.2 hPa Calm     91% 0 mm SCT
05:22 13.3 °C 11.8 °C 1022.2 hPa Calm     91% 0 mm SCT
05:27 13.3 °C 11.8 °C 1022.6 hPa Calm     91% 0 mm SCT
05:32 13.2 °C 11.8 °C 1022.6 hPa Calm     91% 0 mm SCT
05:35 13.2 °C 11.8 °C 1022.6 hPa Calm     91% 0 mm SCT
05:40 13.1 °C 11.5 °C 1022.6 hPa Calm     90% 0 mm SCT
05:45 13.1 °C 11.5 °C 1022.6 hPa Calm     90% 0 mm SCT
05:50 13 °C 11.4 °C 1022.6 hPa Calm     90% 0 mm SCT
05:55 12.9 °C 11.3 °C 1022.6 hPa Calm     90% 0 mm SCT
06:00 12.8 °C 11.2 °C 1022.6 hPa Calm     90% 0 mm SCT
06:05 12.8 °C 11.3 °C 1022.6 hPa Calm     91% 0 mm BKN
06:10 12.8 °C 11.3 °C 1022.6 hPa Calm     91% 0 mm BKN
06:15 12.7 °C 11.3 °C 1022.6 hPa Calm     91% 0 mm BKN
06:20 12.7 °C 11.3 °C 1022.6 hPa Calm     91% 0 mm BKN
06:25 12.7 °C 11.3 °C 1022.6 hPa Calm     91% 0 mm BKN
06:30 12.7 °C 11.2 °C 1022.6 hPa Calm     91% 0 mm BKN
06:35 12.6 °C 11.2 °C 1022.6 hPa Calm     91% 0 mm BKN
06:40 12.7 °C 11.2 °C 1022.9 hPa Calm     91% 0 mm BKN
06:45 12.7 °C 11.4 °C 1022.9 hPa Calm     92% 0 mm BKN
06:50 12.7 °C 11.4 °C 1022.9 hPa Calm     92% 0 mm BKN
06:55 12.8 °C 11.5 °C 1022.9 hPa Calm     92% 0 mm BKN
07:00 12.8 °C 11.4 °C 1022.9 hPa Calm     91% 0 mm BKN
07:05 12.8 °C 11.4 °C 1023.2 hPa Calm     91% 0 mm OVC
07:10 12.9 °C 11.4 °C 1023.2 hPa Calm     91% 0 mm OVC
07:16 12.9 °C 11.5 °C 1023.2 hPa Calm     91% 0 mm OVC
07:21 12.9 °C 11.5 °C 1023.2 hPa Calm     91% 0 mm OVC
07:26 12.9 °C 11.5 °C 1023.2 hPa Calm     91% 0 mm OVC
07:31 13 °C 11.6 °C 1023.2 hPa Calm     91% 0 mm OVC
07:36 13.1 °C 11.4 °C 1023.2 hPa Calm     90% 0 mm OVC
07:41 13.1 °C 11.4 °C 1023.2 hPa Calm     90% 0 mm OVC
07:46 13.1 °C 11.5 °C 1023.2 hPa Calm     90% 0 mm OVC
07:51 13.1 °C 11.4 °C 1023.2 hPa Calm     90% 0 mm OVC
07:56 13.1 °C 11.7 °C 1023.2 hPa Calm     91% 0 mm OVC
08:01 13.1 °C 11.6 °C 1023.6 hPa Calm     91% 0 mm BKN
08:06 13.1 °C 11.6 °C 1023.6 hPa Calm     91% 0 mm BKN
08:11 13.1 °C 11.6 °C 1023.6 hPa Calm     91% 0 mm BKN
08:16 13.1 °C 11.6 °C 1023.6 hPa Calm     91% 0 mm BKN
08:21 13.1 °C 11.6 °C 1023.6 hPa Calm     91% 0 mm BKN
08:26 13.1 °C 11.6 °C 1023.6 hPa Calm     91% 0 mm BKN
08:31 13.1 °C 11.7 °C 1023.6 hPa Calm     91% 0 mm BKN
08:36 13.1 °C 11.7 °C 1023.9 hPa Calm     91% 0 mm BKN
08:41 13.2 °C 11.7 °C 1023.9 hPa Calm     91% 0 mm BKN
08:46 13.2 °C 11.8 °C 1023.9 hPa Calm     91% 0 mm BKN
08:51 13.3 °C 11.8 °C 1023.9 hPa Calm     91% 0 mm BKN
08:56 13.4 °C 11.9 °C 1023.9 hPa Calm     91% 0 mm BKN
09:01 13.5 °C 12.1 °C 1023.9 hPa Calm     91% 0 mm OVC
09:06 13.6 °C 12.2 °C 1023.9 hPa Calm     91% 0 mm OVC
09:12 13.6 °C 12.2 °C 1023.9 hPa Calm     91% 0 mm OVC
09:17 13.6 °C 12.2 °C 1024.3 hPa Calm     91% 0 mm OVC
09:22 13.7 °C 12.2 °C 1024.3 hPa Calm     91% 0 mm OVC
09:27 13.8 °C 12.3 °C 1024.3 hPa Calm     91% 0 mm OVC
09:32 13.8 °C 12.4 °C 1024.3 hPa Calm     91% 0 mm OVC
09:37 13.9 °C 12.5 °C 1024.3 hPa Calm     91% 0 mm OVC
09:42 14.1 °C 12.7 °C 1024.3 hPa WNW 1.9 km/h   91% 0 mm OVC
09:47 14.4 °C 12.8 °C 1024.3 hPa West 1.9 km/h 1.9 km/h 90% 0 mm OVC
09:52 14.7 °C 13.1 °C 1024.3 hPa Calm     90% 0 mm OVC
09:57 14.9 °C 13.1 °C 1024.6 hPa Calm     89% 0 mm OVC
10:02 15 °C 13.2 °C 1024.6 hPa Calm     89% 0 mm OVC
10:07 15.1 °C 13.3 °C 1024.6 hPa Calm     89% 0 mm OVC
10:12 15.2 °C 13.4 °C 1024.6 hPa Calm     89% 0 mm BKN
10:17 15.3 °C 13.6 °C 1024.6 hPa Calm     89% 0 mm BKN
10:22 15.4 °C 13.4 °C 1024.6 hPa WNW 1.6 km/h   88% 0 mm BKN
10:23 15.4 °C 13.6 °C 1024.6 hPa WNW 1.9 km/h 1.9 km/h 89% 0 mm BKN
10:28 15.4 °C 13.7 °C 1024.9 hPa Calm     89% 0 mm BKN
10:33 15.6 °C 13.6 °C 1024.6 hPa Calm     88% 0 mm BKN
10:38 16.1 °C 13.6 °C 1024.9 hPa Calm     85% 0 mm BKN
10:43 16.7 °C 13.8 °C 1024.6 hPa WNW 1.6 km/h   83% 0 mm BKN
10:48 17.1 °C 13.6 °C 1024.6 hPa Calm     80% 0 mm BKN
10:53 17.3 °C 13.8 °C 1024.9 hPa WNW 1.9 km/h   80% 0 mm BKN
10:58 17.5 °C 13.4 °C 1024.9 hPa WNW 1.9 km/h   77% 0 mm BKN
11:04 17.6 °C 13.7 °C 1024.9 hPa Calm     78% 0 mm BKN
11:09 17.8 °C 14.2 °C 1024.6 hPa Calm     79% 0 mm BKN
11:14 18.1 °C 14.2 °C 1024.6 hPa Calm     78% 0 mm BKN
11:19 18.3 °C 13.8 °C 1024.6 hPa Calm     75% 0 mm BKN
11:24 18.8 °C 13.9 °C 1024.6 hPa West 1.9 km/h 1.9 km/h 73% 0 mm BKN
11:29 19.1 °C 14.2 °C 1024.6 hPa West 1.9 km/h   73% 0 mm BKN
11:34 19.3 °C 13.2 °C 1024.6 hPa WNW 1.9 km/h   68% 0 mm BKN
11:39 19.4 °C 13.8 °C 1024.3 hPa Calm     70% 0 mm BKN
11:44 19.6 °C 13.6 °C 1024.3 hPa Calm     68% 0 mm BKN
11:49 19.8 °C 13.8 °C 1024.3 hPa Calm     68% 0 mm BKN
11:54 19.9 °C 13.8 °C 1024.3 hPa NW 1.9 km/h 1.9 km/h 68% 0 mm BKN
11:59 19.8 °C 13.2 °C 1024.3 hPa Calm     66% 0 mm BKN
12:04 19.8 °C 13.3 °C 1024.3 hPa Calm     66% 0 mm BKN
12:09 19.9 °C 13.3 °C 1024.3 hPa Calm     66% 0 mm BKN
12:14 19.9 °C 13.4 °C 1024.3 hPa North 1.9 km/h   66% 0 mm BKN
12:19 20.1 °C 13.1 °C 1024.3 hPa West 1.9 km/h 1.9 km/h 64% 0 mm BKN
12:25 20.4 °C 13.3 °C 1024.3 hPa Calm     64% 0 mm BKN
12:30 20.6 °C 13 °C 1024.3 hPa WNW 1.9 km/h   62% 0 mm BKN
12:35 20.8 °C 13.1 °C 1024.3 hPa WNW 1.9 km/h 1.9 km/h 61% 0 mm BKN
12:40 21.1 °C 13.3 °C 1024.3 hPa Calm   1.6 km/h 61% 0 mm BKN
12:45 21.1 °C 12.5 °C 1023.9 hPa Calm   3.2 km/h 58% 0 mm BKN
12:50 21.2 °C 12.6 °C 1023.9 hPa Calm   1.6 km/h 58% 0 mm BKN
12:55 21.3 °C 13.2 °C 1023.9 hPa Calm   1.6 km/h 60% 0 mm BKN
13:00 21.4 °C 13.1 °C 1023.9 hPa Calm   1.6 km/h 59% 0 mm BKN
13:05 21.5 °C 13.2 °C 1023.6 hPa Calm   1.6 km/h 59% 0 mm BKN
13:10 21.7 °C 13.6 °C 1023.6 hPa Calm   1.6 km/h 60% 0 mm BKN
13:15 21.8 °C 14 °C 1023.6 hPa Calm   1.6 km/h 61% 0 mm BKN
13:20 21.9 °C 13.8 °C 1023.6 hPa Calm   1.6 km/h 60% 0 mm BKN
13:25 22 °C 14.4 °C 1023.2 hPa Calm     62% 0 mm BKN
13:30 22.1 °C 14 °C 1023.2 hPa Calm   1.6 km/h 60% 0 mm BKN
13:35 22.2 °C 13.5 °C 1023.2 hPa Calm   3.2 km/h 58% 0 mm BKN
13:40 22.1 °C 13.9 °C 1023.2 hPa Calm   3.2 km/h 60% 0 mm BKN
13:45 22 °C 13.9 °C 1022.9 hPa NE 1.9 km/h 1.9 km/h 60% 0 mm BKN
13:50 22 °C 14.1 °C 1022.9 hPa Calm   1.6 km/h 61% 0 mm BKN
13:55 22.1 °C 13.9 °C 1022.9 hPa Calm   3.2 km/h 60% 0 mm BKN
14:00 22.3 °C 14.7 °C 1022.9 hPa Calm   3.2 km/h 62% 0 mm BKN
14:05 22.4 °C 14.8 °C 1022.9 hPa Calm   1.6 km/h 62% 0 mm BKN
14:10 22.3 °C 14.4 °C 1022.9 hPa Calm   3.2 km/h 61% 0 mm BKN
14:15 22.2 °C 14.6 °C 1022.9 hPa West 1.6 km/h 1.6 km/h 62% 0 mm BKN
14:20 22.1 °C 14.5 °C 1022.9 hPa Calm   1.6 km/h 62% 0 mm BKN
14:25 22.2 °C 15.1 °C 1022.6 hPa Calm   3.2 km/h 64% 0 mm BKN
14:30 22.4 °C 14.8 °C 1022.6 hPa West 3.7 km/h   62% 0 mm BKN
14:35 22.6 °C 15.2 °C 1022.6 hPa Calm     63% 0 mm BKN
14:40 22.4 °C 14.7 °C 1022.6 hPa Calm     62% 0 mm BKN
14:45 22.3 °C 14.9 °C 1022.6 hPa Calm     63% 0 mm BKN
14:50 22.3 °C 14.9 °C 1022.6 hPa West 1.9 km/h   63% 0 mm BKN
14:55 22.2 °C 14.8 °C 1022.2 hPa Calm     63% 0 mm BKN
15:00 22.2 °C 14.3 °C 1022.2 hPa Calm     61% 0 mm BKN
15:05 22.3 °C 15.1 °C 1022.2 hPa WNW 1.9 km/h   64% 0 mm BKN
15:10 22.3 °C 14.7 °C 1022.2 hPa Calm     62% 0 mm BKN
15:11 22.3 °C 14.7 °C 1022.2 hPa Calm     62% 0 mm BKN
15:16 22.6 °C 15.2 °C 1022.2 hPa NW 1.6 km/h 1.6 km/h 63% 0 mm BKN
15:21 22.6 °C 14.9 °C 1022.2 hPa Calm     62% 0 mm BKN
15:26 22.5 °C 15.1 °C 1022.2 hPa West 3.7 km/h 3.7 km/h 63% 0 mm BKN
15:32 22.3 °C 14.9 °C 1022.2 hPa West 1.9 km/h   63% 0 mm BKN
15:37 22.2 °C 15.1 °C 1021.9 hPa Calm     64% 0 mm BKN
15:42 22.1 °C 15.2 °C 1021.9 hPa Calm     65% 0 mm BKN
15:47 22.1 °C 15 °C 1021.9 hPa West 1.9 km/h 1.9 km/h 64% 0 mm BKN
15:52 22.1 °C 14.7 °C 1021.9 hPa NNW 1.9 km/h   63% 0 mm BKN
15:57 22 °C 15.3 °C 1022.2 hPa Calm     66% 0 mm BKN
16:02 21.9 °C 15.2 °C 1022.2 hPa Calm     66% 0 mm BKN
16:07 21.9 °C 15.7 °C 1021.9 hPa Calm     68% 0 mm BKN
16:12 21.9 °C 15.8 °C 1021.9 hPa Calm     68% 0 mm BKN
16:17 21.9 °C 14.8 °C 1022.2 hPa NNW 1.9 km/h   64% 0 mm BKN
16:20 21.9 °C 15.3 °C 1022.2 hPa Calm     66% 0 mm BKN
16:25 21.9 °C 15.8 °C 1022.2 hPa Calm     68% 0 mm BKN
16:30 21.9 °C 16 °C 1022.2 hPa Calm     69% 0 mm BKN
16:35 21.9 °C 15.5 °C 1021.9 hPa Calm     67% 0 mm BKN
16:40 21.9 °C 15.5 °C 1022.2 hPa Calm     67% 0 mm BKN
16:45 21.9 °C 15.7 °C 1022.2 hPa Calm     68% 0 mm BKN
16:50 21.9 °C 15.9 °C 1022.2 hPa Calm     69% 0 mm BKN
16:55 21.8 °C 15.8 °C 1022.2 hPa Calm     69% 0 mm BKN
17:00 21.6 °C 15.9 °C 1022.2 hPa Calm     70% 0 mm BKN
17:05 21.3 °C 15.6 °C 1022.2 hPa Calm     70% 0 mm BKN
17:11 21.2 °C 15.8 °C 1022.2 hPa Calm     71% 0 mm BKN
17:16 21.2 °C 15.7 °C 1022.2 hPa Calm     71% 0 mm BKN
17:21 21.1 °C 15.6 °C 1022.2 hPa Calm     71% 0 mm BKN
17:26 20.9 °C 15.7 °C 1022.2 hPa Calm     72% 0 mm BKN
17:31 20.9 °C 15.9 °C 1022.2 hPa Calm     73% 0 mm BKN
17:36 20.8 °C 16 °C 1022.2 hPa Calm     74% 0 mm BKN
17:41 20.8 °C 16 °C 1022.2 hPa Calm     74% 0 mm BKN
17:46 20.7 °C 15.9 °C 1022.2 hPa Calm     74% 0 mm BKN
17:51 20.6 °C 15.8 °C 1022.2 hPa Calm     74% 0 mm BKN
17:56 20.6 °C 15.9 °C 1022.2 hPa Calm     75% 0 mm BKN
18:01 20.4 °C 15.9 °C 1022.2 hPa Calm     75% 0 mm BKN
18:06 20.3 °C 15.8 °C 1022.2 hPa Calm     75% 0 mm BKN
18:11 20.3 °C 15.9 °C 1022.2 hPa Calm     76% 0 mm BKN
18:16 20.2 °C 15.6 °C 1022.2 hPa Calm     75% 0 mm BKN
18:21 20 °C 15.7 °C 1022.2 hPa Calm     76% 0 mm BKN
18:23 20 °C 15.7 °C 1022.2 hPa Calm     76% 0 mm BKN
18:28 19.9 °C 15.6 °C 1022.2 hPa Calm     76% 0 mm BKN
18:33 19.8 °C 15.6 °C 1022.2 hPa Calm     77% 0 mm BKN
18:38 19.7 °C 15.5 °C 1022.2 hPa Calm     77% 0 mm BKN
18:43 19.6 °C 15.7 °C 1022.2 hPa Calm     78% 0 mm BKN
18:48 19.6 °C 15.6 °C 1022.2 hPa Calm     78% 0 mm BKN
18:53 19.4 °C 15.5 °C 1022.2 hPa Calm     78% 0 mm BKN
18:58 19.4 °C 15.4 °C 1022.2 hPa Calm     78% 0 mm BKN
19:03 19.3 °C 15.6 °C 1022.2 hPa Calm     79% 0 mm BKN
19:08 19.2 °C 15.5 °C 1022.2 hPa Calm     79% 0 mm BKN
19:13 19.1 °C 15.5 °C 1022.2 hPa Calm     80% 0 mm BKN
19:18 19 °C 15.4 °C 1022.6 hPa Calm     80% 0 mm BKN
19:23 18.9 °C 15.4 °C 1022.6 hPa Calm     80% 0 mm BKN
19:28 18.9 °C 15.6 °C 1022.6 hPa Calm     81% 0 mm BKN
19:33 18.8 °C 15.4 °C 1022.6 hPa Calm     81% 0 mm BKN
19:38 18.8 °C 15.7 °C 1022.6 hPa Calm     82% 0 mm BKN
19:43 18.7 °C 15.6 °C 1022.6 hPa Calm     82% 0 mm BKN
19:48 18.7 °C 15.6 °C 1022.6 hPa Calm     82% 0 mm BKN
19:53 18.6 °C 15.5 °C 1022.6 hPa Calm     82% 0 mm BKN
19:58 18.6 °C 15.6 °C 1022.6 hPa Calm     83% 0 mm BKN
20:04 18.5 °C 15.6 °C 1022.6 hPa Calm     83% 0 mm BKN
20:09 18.4 °C 15.5 °C 1022.9 hPa Calm     83% 0 mm BKN
20:14 18.4 °C 15.5 °C 1022.9 hPa Calm     83% 0 mm BKN
20:19 18.4 °C 15.5 °C 1022.6 hPa Calm     83% 0 mm BKN
20:24 18.4 °C 15.4 °C 1022.6 hPa Calm     83% 0 mm BKN
20:29 18.4 °C 15.4 °C 1022.6 hPa Calm     83% 0 mm BKN
20:34 18.3 °C 15.5 °C 1022.6 hPa Calm     84% 0 mm BKN
20:39 18.2 °C 15.5 °C 1022.6 hPa Calm     84% 0 mm BKN
20:44 18.2 °C 15.4 °C 1022.6 hPa Calm     84% 0 mm BKN
20:49 18.1 °C 15.4 °C 1022.6 hPa Calm     84% 0 mm BKN
20:54 18 °C 15.4 °C 1022.6 hPa Calm     85% 0 mm BKN
20:59 17.9 °C 15.4 °C 1022.6 hPa Calm     85% 0 mm BKN
21:04 17.8 °C 15.4 °C 1022.6 hPa Calm     86% 0 mm SCT
21:09 17.7 °C 15.3 °C 1022.6 hPa Calm     86% 0 mm SCT
21:14 17.6 °C 15.2 °C 1022.9 hPa Calm     86% 0 mm SCT
21:19 17.6 °C 15.2 °C 1022.9 hPa Calm     86% 0 mm SCT
21:24 17.5 °C 15.1 °C 1022.9 hPa Calm     86% 0 mm SCT
21:29 17.4 °C 15.1 °C 1023.2 hPa Calm     86% 0 mm SCT
21:34 17.4 °C 14.8 °C 1023.2 hPa Calm     85% 0 mm SCT
21:39 17.4 °C 15 °C 1023.2 hPa Calm     86% 0 mm SCT
21:44 17.3 °C 14.9 °C 1023.2 hPa Calm     86% 0 mm SCT
21:49 17.2 °C 14.8 °C 1023.2 hPa Calm     86% 0 mm SCT
21:54 17.1 °C 14.7 °C 1023.2 hPa Calm     86% 0 mm SCT
21:59 17 °C 14.7 °C 1023.2 hPa Calm     86% 0 mm SCT
22:04 16.9 °C 14.7 °C 1023.6 hPa Calm     87% 0 mm SCT
22:09 16.9 °C 14.7 °C 1023.2 hPa Calm     87% 0 mm SCT
22:14 16.7 °C 14.7 °C 1023.2 hPa Calm     88% 0 mm SCT
22:20 16.7 °C 14.7 °C 1023.2 hPa Calm     88% 0 mm SCT
22:25 16.6 °C 14.6 °C 1023.2 hPa Calm     88% 0 mm SCT
22:30 16.4 °C 14.4 °C 1023.2 hPa Calm     88% 0 mm SCT
22:35 16.4 °C 14.6 °C 1023.2 hPa Calm     89% 0 mm SCT
22:40 16.3 °C 14.5 °C 1023.2 hPa Calm     89% 0 mm SCT
22:45 16.3 °C 14.4 °C 1023.2 hPa Calm     89% 0 mm SCT
22:50 16.3 °C 14.4 °C 1023.2 hPa Calm     89% 0 mm SCT
22:55 16.2 °C 14.4 °C 1023.2 hPa Calm     89% 0 mm SCT
23:00 16.1 °C 14.3 °C 1023.2 hPa Calm     89% 0 mm SCT
23:05 16.1 °C 14.2 °C 1023.2 hPa Calm     89% 0 mm FEW
23:07 16 °C 14.2 °C 1023.2 hPa Calm     89% 0 mm FEW
23:13 15.9 °C 14.1 °C 1023.2 hPa Calm     89% 0 mm FEW
23:18 15.9 °C 14.3 °C 1023.6 hPa Calm     90% 0 mm FEW
23:23 15.9 °C 14.3 °C 1023.6 hPa Calm     90% 0 mm FEW
23:24 15.9 °C 14.3 °C 1023.6 hPa Calm     90% 0 mm FEW
23:26 15.9 °C 14.3 °C 1023.6 hPa Calm     90% 0 mm FEW
23:31 15.8 °C 14.2 °C 1023.6 hPa Calm     90% 0 mm FEW
23:36 15.7 °C 14.1 °C 1023.6 hPa Calm     90% 0 mm FEW
23:41 15.6 °C 14 °C 1023.6 hPa Calm     90% 0 mm FEW
23:46 15.5 °C 13.9 °C 1023.6 hPa Calm     90% 0 mm FEW
23:51 15.4 °C 13.8 °C 1023.6 hPa Calm     90% 0 mm FEW
23:56 15.3 °C 13.7 °C 1023.6 hPa Calm     90% 0 mm FEW
Piedmont Bend
Compliments of Weather Underground - 2 mb